Skip Page Navigation
NASA JPL Caltech
NASA Logo - Jet Propulsion Laboratory + View the NASA Portal
+ Near-Earth Object (NEO) Program
Search JPL
JPL Home Earth Solar System Stars & Galaxies Technology
JPL Solar System Dynamics
BODIES ORBITS EPHEMERIDES TOOLS PHYSICAL DATA DISCOVERY FAQ SITE MAP
JPL Small-Body Database Browser
Search: [ help ]  
17702 Krystofharant (1997 JD)
Classification: Main-belt Asteroid          SPK-ID: 2017702
Ephemeris | Orbit Diagram | Orbital Elements | Physical Parameters | Discovery Circumstances | Close-Approach Data ]

[ show orbit diagram ]
Orbital Elements at Epoch 2457000.5 (2014-Dec-09.0) TDB
Reference: JPL 9 (heliocentric ecliptic J2000)
 Element Value Uncertainty (1-sigma)   Units 
e .07039068612905257 6.0949e-08  
a 3.07395066135684 3.5586e-08 AU
q 2.857573165177078 1.8243e-07 AU
i 8.722436005095053 7.3629e-06 deg
node 226.749206577878 3.9774e-05 deg
peri 240.8330342596208 6.7646e-05 deg
M 172.232590813817 5.701e-05 deg
tp 2456058.704525062733
(2012-May-11.20452506)
0.00030497 JED
period 1968.53783233119
5.39
3.4184e-05
9.359e-08
d
yr
n .182876851075643 3.1757e-09 deg/d
Q 3.290328157536603 3.8091e-08 AU
  Orbit Determination Parameters
   # obs. used (total)      752  
   data-arc span      6335 days (17.34 yr)  
   first obs. used      1997-04-11  
   last obs. used      2014-08-15  
   planetary ephem.      DE431  
   SB-pert. ephem.      SB431-BIG16  
   condition code      0  
   fit RMS      .5479  
   data source      ORB  
   producer      Otto Matic  
   solution date      2014-Sep-12 14:08:41  

Additional Information
 Earth MOID = 1.88681 AU 
 T_jup = 3.208 
[ show covariance matrix ]

Ephemeris | Orbit Diagram | Orbital Elements | Physical Parameters | Discovery Circumstances | Close-Approach Data ]

Physical Parameter Table
Parameter Symbol Value Units Sigma Reference Notes
absolute magnitude H 13.5 mag n/a MPO302173  

17702 Kryštofharant           Discovered 1997 May 1 by P. Pravec at Ondřejov.
Kryštof Harant z Polžic a Bezdružic (1564-1621), a man of wide interests, wrote poetry and a travelogue that he also illustrated and was renowned for his musical compositions. During 1600-1612 he was a valet and counsel of Rudolph II. He took part in the struggle against the Hapsburg king and was executed.
NOTE: some special characters may not display properly (any characters within {} are an attempt to place the proper accent above a character)
Reference: 20010309/MPCPages.arcLast Updated: 2009-05-11

[ show close-approach data ]
Ephemeris | Orbit Diagram | Orbital Elements | Physical Parameters | Discovery Circumstances | Close-Approach Data ]
ABOUT SSD CREDITS/AWARDS PRIVACY/COPYRIGHT GLOSSARY LINKS
FirstGov 2014-Oct-24 23:48 UT
(server date/time)  
NASA Home Page
Site Manager:   Donald K. Yeomans
Webmaster  Alan B. Chamberlin